Findlay, OH

6:06 PM EST on December 05, 2019 (GMT -0500)
Findlay

Weather History for KFDY - November, 2019

Change the Weather History Date:

Tuesday, November 19, 2019

  Actual Average Record
Temperature  
Mean Temperature 40 °F -  
Max Temperature 44 °F 48 °F 70 °F (1953)
Min Temperature 35 °F 34 °F 15 °F (2014)
Degree Days  
Heating Degree Days 26    
Moisture  
Dew Point 35 °F    
Average Humidity 84    
Maximum Humidity 93    
Minimum Humidity 63    
Precipitation  
Precipitation 0.00 in - - ()
Sea Level Pressure  
Sea Level Pressure 29.82 in    
Wind  
Wind Speed 7 mph (WSW)    
Max Wind Speed 12 mph    
Max Gust Speed -    
Visibility 6 miles    
Events      
Averages and records for this station are not official NWS values.
T = Trace of Precipitation, MM = Missing Value Source: NWS Daily Summary

Daily Weather History Graph

Daily Weather History Graph

Search for Another Location

Airport or City:

Astronomy

Nov. 19, 2019 Rise Set
Actual Time 7:26 AM EST 5:13 PM EST
Civil Twilight 6:56 AM EST 5:42 PM EST
Nautical Twilight 6:23 AM EST 6:16 PM EST
Astronomical Twilight 5:50 AM EST 6:48 PM EST
Moon No Moon Rise 1:36 PM EST (11/19)
Length of Visible Light 10h 45m
Length of Day
9h 46m
Waning Gibbous, 52% of the Moon is Illuminated
Nov 19
Waning Gibbous
Nov 19
Last Quarter
Nov 26
New
Dec 4
First Quarter
Dec 12
Full

Hourly Weather History & Observations

Time (EST) Temp. Windchill Dew Point Humidity Pressure Visibility Wind Dir Wind Speed Gust Speed Precip Events Conditions
12:14 AM 39.9 °F 33.9 °F 37.0 °F 89% 29.75 in 3.0 mi WSW 9.2 mph - N/A   Overcast
12:53 AM 39.9 °F 32.9 °F 37.0 °F 89% 29.75 in 3.0 mi West 11.5 mph - N/A   Overcast
1:53 AM 39.9 °F 34.5 °F 37.9 °F 93% 29.75 in 3.0 mi West 8.1 mph - N/A   Overcast
2:53 AM 39.9 °F 35.1 °F 37.9 °F 93% 29.76 in 4.0 mi WSW 6.9 mph - N/A   Overcast
3:16 AM 39.9 °F 34.5 °F 37.9 °F 93% 29.76 in 3.0 mi WSW 8.1 mph - N/A   Overcast
3:44 AM 39.9 °F 34.5 °F 37.0 °F 89% 29.75 in 6.0 mi WSW 8.1 mph - N/A   Overcast
3:53 AM 39.9 °F 33.9 °F 37.0 °F 89% 29.76 in 5.0 mi WSW 9.2 mph - N/A   Overcast
4:03 AM 39.9 °F 34.5 °F 37.9 °F 93% 29.75 in 2.5 mi WSW 8.1 mph - N/A   Overcast
4:12 AM 39.9 °F 35.1 °F 37.9 °F 93% 29.75 in 1.8 mi WSW 6.9 mph - N/A   Overcast
4:20 AM 39.9 °F 33.9 °F 37.9 °F 93% 29.76 in 2.0 mi WSW 9.2 mph - N/A   Overcast
4:37 AM 39.0 °F 33.4 °F 37.0 °F 93% 29.76 in 4.0 mi WSW 8.1 mph - N/A   Overcast
4:53 AM 39.0 °F 32.8 °F 37.0 °F 93% 29.77 in 5.0 mi WSW 9.2 mph - N/A   Overcast
5:53 AM 39.0 °F 34.8 °F 37.0 °F 93% 29.76 in 5.0 mi WSW 5.8 mph - N/A   Overcast
6:53 AM 39.0 °F 35.7 °F 36.0 °F 89% 29.78 in 6.0 mi WSW 4.6 mph - N/A   Overcast
7:53 AM 39.0 °F 34.8 °F 36.0 °F 89% 29.79 in 5.0 mi SW 5.8 mph - N/A   Overcast
8:03 AM 39.0 °F 34.8 °F 36.0 °F 89% 29.79 in 5.0 mi SW 5.8 mph - N/A   Overcast
8:33 AM 39.0 °F 35.7 °F 36.0 °F 89% 29.80 in 5.0 mi SW 4.6 mph - N/A   Overcast
8:53 AM 39.9 °F 36.7 °F 36.0 °F 86% 29.81 in 5.0 mi WSW 4.6 mph - N/A   Overcast
9:19 AM 39.9 °F 35.8 °F 36.0 °F 86% 29.80 in 4.0 mi WSW 5.8 mph - N/A   Overcast
9:53 AM 39.9 °F 35.8 °F 37.0 °F 89% 29.81 in 4.0 mi WSW 5.8 mph - N/A   Overcast
10:03 AM 39.9 °F 35.8 °F 37.0 °F 89% 29.81 in 5.0 mi West 5.8 mph - N/A   Overcast
10:53 AM 41.0 °F - 36.0 °F 82% 29.81 in 7.0 mi Calm Calm - N/A   Overcast
11:49 AM 42.8 °F 40.1 °F 35.6 °F 76% 29.81 in 9.0 mi SW 4.6 mph - N/A   Overcast
11:53 AM 42.1 °F 39.2 °F 36.0 °F 79% 29.81 in 8.0 mi SSW 4.6 mph - N/A   Overcast
12:53 PM 42.1 °F 40.2 °F 36.0 °F 79% 29.81 in 9.0 mi SSE 3.5 mph - N/A   Overcast
2:53 PM 44.1 °F 40.8 °F 32.0 °F 63% 29.82 in 10.0 mi SW 5.8 mph - N/A   Overcast
3:53 PM 44.1 °F 41.5 °F 32.0 °F 63% 29.84 in 10.0 mi West 4.6 mph - N/A   Overcast
4:02 PM 44.1 °F 42.5 °F 32.0 °F 63% 29.84 in 10.0 mi West 3.5 mph - N/A   Overcast
4:26 PM 43.0 °F - 32.0 °F 65% 29.85 in 10.0 mi Calm Calm - N/A   Scattered Clouds
4:53 PM 43.0 °F - 32.0 °F 65% 29.86 in 10.0 mi Calm Calm - N/A   Clear
5:53 PM 41.0 °F 39.0 °F 34.0 °F 76% 29.87 in 10.0 mi NNE 3.5 mph - N/A   Mostly Cloudy
6:53 PM 41.0 °F 39.0 °F 34.0 °F 76% 29.89 in 9.0 mi ENE 3.5 mph - N/A   Mostly Cloudy
7:53 PM 37.9 °F - 33.1 °F 83% 29.91 in 8.0 mi Calm Calm - N/A   Clear
8:53 PM 37.9 °F - 33.1 °F 83% 29.94 in 7.0 mi Calm Calm - N/A   Clear
9:53 PM 35.1 °F - 32.0 °F 89% 29.95 in 4.0 mi Calm Calm - N/A   Clear
10:53 PM 35.1 °F - 32.0 °F 89% 29.96 in 4.0 mi Calm Calm - N/A   Overcast
11:53 PM 35.1 °F - 32.0 °F 89% 29.97 in 5.0 mi Calm Calm - N/A   Overcast